Ogden, UT

2:58 PM MDT on August 22, 2017 (GMT -0600)
Ogden-Hinckley

Weather History for KOGD - March, 2014

Change the Weather History Date:

Wednesday, March 5, 2014

  Actual Average Record
Temperature  
Mean Temperature 46 °F -  
Max Temperature 55 °F 49 °F 69 °F (1987)
Min Temperature 36 °F 28 °F 5 °F (1939)
Degree Days  
Heating Degree Days 20    
Moisture  
Dew Point 31 °F    
Average Humidity 58    
Maximum Humidity 86    
Minimum Humidity 34    
Precipitation  
Precipitation 0.00 in - - ()
Sea Level Pressure  
Sea Level Pressure 30.08 in    
Wind  
Wind Speed 9 mph (SSE)    
Max Wind Speed 14 mph    
Max Gust Speed -    
Visibility 10 miles    
Events      
Averages and records for this station are not official NWS values.
T = Trace of Precipitation, MM = Missing Value Source: NWS Daily Summary

Daily Weather History Graph

Daily Weather History Graph

Search for Another Location

Airport or City:

Trip Planner

Search our weather history database for the weather conditions in past years. The results will help you decide how hot, cold, wet, or windy it might be!

Date:

Astronomy

Mar. 05, 2014 Rise Set
Actual Time 6:55 AM MST 6:23 PM MST
Civil Twilight 6:28 AM MST 6:51 PM MST
Nautical Twilight 5:56 AM MST 7:23 PM MST
Astronomical Twilight 5:24 AM MST 7:55 PM MST
Moon 9:21 AM MST (3/5) 11:39 PM MST (3/5)
Length of Visible Light 12h 22m
Length of Day
11h 27m
Waxing Crescent, 24% of the Moon is Illuminated
Mar 5
Waxing Crescent
Mar 8
First Quarter
Mar 16
Full
Mar 23
Last Quarter
Mar 30
New

Hourly Weather History & Observations

Time (MST) Temp. Windchill Dew Point Humidity Pressure Visibility Wind Dir Wind Speed Gust Speed Precip Events Conditions
12:53 AM 41.0 °F 35.2 °F 33.1 °F 73% 30.11 in 10.0 mi SSE 9.2 mph - N/A   Mostly Cloudy
1:53 AM 37.9 °F 32.1 °F 32.0 °F 79% 30.12 in 10.0 mi South 8.1 mph - N/A   Clear
2:53 AM 37.0 °F 31.6 °F 32.0 °F 82% 30.12 in 10.0 mi South 6.9 mph - N/A   Clear
3:53 AM 36.0 °F 31.1 °F 32.0 °F 86% 30.11 in 10.0 mi South 5.8 mph - N/A   Clear
4:53 AM 36.0 °F 30.3 °F 30.9 °F 82% 30.12 in 10.0 mi South 6.9 mph - N/A   Clear
5:53 AM 37.0 °F 30.4 °F 32.0 °F 82% 30.13 in 10.0 mi South 9.2 mph - N/A   Mostly Cloudy
6:53 AM 36.0 °F 29.0 °F 30.9 °F 82% 30.15 in 10.0 mi South 9.2 mph - N/A   Clear
7:53 AM 37.9 °F 32.7 °F 32.0 °F 79% 30.18 in 10.0 mi SSE 6.9 mph - N/A   Mostly Cloudy
8:53 AM 42.1 °F 36.6 °F 33.1 °F 70% 30.16 in 10.0 mi SSE 9.2 mph - N/A   Mostly Cloudy
9:53 AM 46.0 °F 42.5 °F 33.1 °F 61% 30.15 in 10.0 mi SE 6.9 mph - N/A   Clear
10:53 AM 48.9 °F - 34.0 °F 56% 30.15 in 10.0 mi South 13.8 mph - N/A   Clear
11:53 AM 51.1 °F - 32.0 °F 48% 30.14 in 10.0 mi South 11.5 mph - N/A   Clear
12:53 PM 53.1 °F - 32.0 °F 45% 30.09 in 10.0 mi South 13.8 mph - N/A   Clear
1:53 PM 54.0 °F - 30.0 °F 40% 30.07 in 10.0 mi South 13.8 mph - N/A   Clear
2:53 PM 55.0 °F - 27.0 °F 34% 30.05 in 10.0 mi SSW 11.5 mph - N/A   Scattered Clouds
3:53 PM 55.0 °F - 28.0 °F 35% 30.05 in 10.0 mi South 5.8 mph - N/A   Mostly Cloudy
4:53 PM 54.0 °F - 28.9 °F 38% 30.04 in 10.0 mi South 6.9 mph - N/A   Mostly Cloudy
5:53 PM 53.1 °F - 30.0 °F 41% 30.03 in 10.0 mi SE 6.9 mph - N/A   Overcast
6:53 PM 52.0 °F - 30.9 °F 45% 30.03 in 10.0 mi South 5.8 mph - N/A   Overcast
7:53 PM 53.1 °F - 28.0 °F 38% 30.02 in 10.0 mi SE 3.5 mph - N/A   Overcast
8:53 PM 51.1 °F - 28.9 °F 43% 30.01 in 10.0 mi SSE 6.9 mph - N/A   Overcast
9:53 PM 48.9 °F - 28.0 °F 44% 30.00 in 10.0 mi SSE 8.1 mph - N/A   Scattered Clouds
10:53 PM 46.9 °F - 28.9 °F 50% 30.00 in 10.0 mi South 10.4 mph - N/A   Clear
11:53 PM 46.0 °F 41.0 °F 28.0 °F 50% 29.98 in 10.0 mi SSE 10.4 mph - N/A   Clear